EST,Max TemperatureF,Mean TemperatureF,Min TemperatureF,Max Dew PointF,MeanDew PointF,Min DewpointF,Max Humidity, Mean Humidity, Min Humidity, Max Sea Level PressureIn, Mean Sea Level PressureIn, Min Sea Level PressureIn, Max VisibilityMiles, Mean VisibilityMiles, Min VisibilityMiles, Max Wind SpeedMPH, Mean Wind SpeedMPH, Max Gust SpeedMPH,PrecipitationIn, CloudCover, Events, WindDirDegrees
2011-12-1,37,32,26,27,24,23,93,78,55,30.35,30.26,30.11,10,10,10,9,6,,0.00,3,,251
2011-12-2,39,34,28,28,25,21,80,70,60,30.56,30.39,30.22,10,10,10,18,9,25,0.00,3,,264
2011-12-3,39,32,25,28,25,22,88,76,62,30.60,30.55,30.47,10,10,10,13,5,,0.00,0,,167
2011-12-4,54,44,33,31,28,26,78,62,34,30.44,30.37,30.30,10,10,10,10,8,,0.00,0,,174
2011-12-5,57,50,42,49,39,29,96,69,56,30.29,30.19,30.04,10,10,7,18,7,24,0.02,4,Rain,181
2011-12-6,53,47,39,54,50,39,100,99,88,30.02,29.98,29.89,10,4,0,13,7,,0.18,8,Fog-Rain,230
2011-12-7,39,32,25,40,33,24,100,99,93,29.96,29.81,29.68,10,2,0,25,8,34,0.88,8,Fog-Rain-Snow,307
2011-12-8,26,24,23,23,21,20,96,88,81,30.31,30.13,29.86,10,9,4,24,16,36,0.00,6,Snow,257
2011-12-9,34,28,21,25,22,17,96,77,64,30.29,30.25,30.20,10,10,7,15,6,21,0.00,3,,228
2011-12-10,30,24,18,27,18,9,100,74,53,30.53,30.34,30.18,10,10,6,18,11,21,0.00,4,Snow,288
2011-12-11,32,23,14,12,8,0,84,57,26,30.65,30.56,30.43,10,10,10,10,4,,0.00,0,,195
2011-12-12,37,30,23,17,14,11,74,54,38,30.54,30.48,30.37,10,10,10,8,4,,0.00,0,,210
2011-12-13,39,33,27,25,20,15,67,60,49,30.49,30.44,30.36,10,10,10,9,5,,0.00,2,,268
2011-12-14,43,38,35,37,31,25,87,74,62,30.40,30.29,30.14,10,10,8,14,5,,0.00,7,Rain,183
2011-12-15,54,48,42,52,46,33,100,82,63,30.11,29.90,29.79,10,9,2,23,14,44,0.06,7,Rain,230
2011-12-16,39,34,28,32,23,21,80,73,69,30.24,30.14,29.99,10,10,10,26,16,40,0.00,6,,281
2011-12-17,27,25,23,25,22,19,100,89,72,30.23,30.13,30.07,10,4,0,14,10,17,0.06,8,Fog-Snow,281
2011-12-18,27,25,23,23,22,20,100,89,78,30.28,30.16,30.08,10,5,1,13,8,20,0.03,7,Snow,272
2011-12-19,41,34,27,34,28,21,83,74,55,30.21,30.08,29.98,10,10,10,24,14,33,0.00,5,Rain,236
2011-12-20,44,40,37,39,37,34,100,94,73,30.15,30.07,30.00,10,6,0,17,9,24,0.16,8,Fog-Rain,228
2011-12-21,55,47,39,50,44,36,100,90,76,30.01,29.85,29.66,10,7,1,21,8,40,0.42,8,Rain,211
2011-12-22,46,44,41,43,39,37,100,85,71,30.11,29.98,29.81,10,8,1,17,8,24,0.24,8,Rain,242
2011-12-23,42,35,28,43,32,26,100,96,86,30.24,30.05,29.85,10,6,0,16,10,24,0.07,8,Fog-Rain-Snow,304
2011-12-24,30,26,23,27,22,18,100,80,64,30.45,30.32,30.17,10,9,4,16,8,26,0.01,6,Snow,248
2011-12-25,39,34,28,27,24,21,86,69,47,30.30,30.13,30.00,10,10,8,24,12,34,0.00,3,Snow,244
2011-12-26,33,32,30,25,24,22,82,73,64,30.34,30.21,30.02,10,10,10,24,15,32,0.00,5,,265
2011-12-27,37,34,30,37,31,21,100,89,56,30.07,29.54,29.34,10,6,2,26,12,40,0.65,7,Rain-Snow,199
2011-12-28,30,24,17,29,20,12,96,84,68,30.01,29.73,29.47,10,4,0,30,21,43,0.03,7,Fog-Rain-Snow,286
2011-12-29,34,26,17,31,24,12,100,85,67,30.01,29.89,29.79,10,7,1,14,9,24,0.00,7,Snow,205
2011-12-30,43,39,35,34,30,28,76,70,65,29.97,29.87,29.78,10,10,10,17,11,23,0.00,5,,198
2011-12-31,39,37,35,38,36,30,100,97,70,30.12,29.92,29.75,10,7,0,18,9,28,0.10,8,Fog-Rain,252